Tracking 29892 objects as of 21-Nov-2024
HD Live streaming from Space Station
objects crossing your sky now

NIMBUS 2


NIMBUS 2 is no longer on orbit


NORAD ID: 2173
Int'l Code: 1966-040A
Perigee: N/A
Apogee: N/A
Inclination: N/A
Period: N/A
Semi major axis: N/A
RCS: N/A
Launch date: May 15, 1966
Source: United States (US)
Launch site: AIR FORCE WESTERN TEST RANGE (AFWTR)
Decay date: 1969-01-17
Your satellite tracking list
Your tracking list is empty




NASA's NSSDC Master Catalog

Two Line Element Set (TLE):
1 02173U 66040A   24325.82827755  .00000006  00000-0  10804-3 0  9991
2 02173 100.5778 156.4344 0055112 198.3438 236.4663 13.33674322847193
Source of the keplerian elements: AFSPC